Flag for Switzerland Weather past 2 weeks in Thônex, Geneva, Switzerland

Now
73 °F

Scattered clouds.


Feels Like: 77 °F
Forecast: 50 / 78 °F
Wind: 5 mph from Northeast

Location: Geneva Cointrin Airport

Current Time: Aug 27, 2014 at 5:16:16 PM

Latest Report: Aug 27, 2014 at 4:50 PM


Visibility: N/A

Pressure: 30.01 "Hg

Humidity: 50%

Dew point: 54 °F

Location of ThônexLocation

Historic Weather in Thônex — Graph

°F

Thônex temperature yesterday

Maximum temperature yesterday: 68 °F (at 5:20 PM)
Minimum temperature yesterday: 57 °F (at 12:20 AM)
Average temperature yesterday: 62 °F

Past Weeks' High & Low Weather Summary

 TemperatureHumidityPressure
High77 °F (Aug 18, 3:50 PM)100% (Aug 13, 5:50 AM)30.21 "Hg (Aug 13, 5:50 AM)
Low46 °F (Aug 17, 4:50 AM)34% (Aug 18, 3:50 PM)29.74 "Hg (Aug 13, 6:50 AM)
Average61 °F72%30.02 "Hg
* Reported Aug 12 4:20 PM — Aug 27 4:20 PM, Thônex, Weather by CustomWeather, © 2014

Note: Actual official high and low records may vary slightly from our data, if they occured in-between our weather recording intervals... More about our weather records

Advertising

Thônex weather history for previous 24 hours

 ConditionsComfort  
Time TempWeatherWind HumidityBarometerVisibility
4:20 PM
Aug 27
73 °FScattered clouds.3 mph50%30.01 "HgN/A
3:50 PM73 °FScattered clouds.2 mph47%30.01 "HgN/A
3:20 PM73 °FPassing clouds.3 mph50%30.01 "HgN/A
2:50 PM75 °FPassing clouds.2 mph44%30.01 "HgN/A
2:20 PM73 °FPassing clouds.6 mph47%30.01 "HgN/A
1:50 PM73 °FPassing clouds.5 mph47%30.01 "HgN/A
1:20 PM73 °FPassing clouds.5 mph47%30.01 "HgN/A
12:50 PM73 °FScattered clouds.2 mph47%30.01 "HgN/A
12:20 PM72 °FScattered clouds.7 mph53%30.01 "HgN/A
11:50 AM70 °FPartly sunny.5 mph53%30.01 "HgN/A
11:20 AM72 °FScattered clouds.6 mph50%30.01 "HgN/A
10:50 AM70 °FScattered clouds.5 mph53%30.01 "HgN/A
10:20 AM70 °FScattered clouds.9 mph57%30.01 "HgN/A
9:50 AM68 °FScattered clouds.8 mph64%30.01 "HgN/A
9:20 AM66 °FScattered clouds.3 mph68%30.01 "HgN/A
8:50 AM64 °FScattered clouds.5 mph73%30.01 "HgN/A
8:20 AM63 °FScattered clouds.5 mph77%30.01 "HgN/A
7:50 AM63 °FScattered clouds.7 mph83%29.98 "HgN/A
7:20 AM59 °FPassing clouds.2 mph94%29.98 "HgN/A
6:50 AM61 °FPassing clouds.3 mph88%29.98 "HgN/A
6:20 AM63 °FPassing clouds.6 mph83%29.98 "HgN/A
5:50 AM63 °FScattered showers. Passing clouds.6 mph83%29.98 "HgN/A
5:20 AM63 °FPassing clouds.9 mph83%29.95 "HgN/A
4:50 AM63 °FPassing clouds.9 mph83%29.95 "HgN/A
4:20 AM63 °FPassing clouds.5 mph83%29.95 "HgN/A
3:50 AM63 °FPassing clouds.9 mph83%29.95 "HgN/A
2:50 AM63 °FPassing clouds.6 mph88%29.95 "HgN/A
2:20 AM64 °FPassing clouds.7 mph83%29.95 "HgN/A
1:50 AM64 °FPassing clouds.9 mph83%29.95 "HgN/A
1:20 AM66 °FScattered showers. Passing clouds.12 mph83%29.95 "HgN/A
12:50 AM64 °FPassing clouds.10 mph88%29.92 "HgN/A
12:20 AM64 °FPassing clouds.5 mph88%29.92 "HgN/A
11:20 PM
Aug 26
64 °FPartly cloudy.9 mph88%29.92 "HgN/A
10:50 PM64 °FPassing clouds.7 mph88%29.89 "HgN/A
10:20 PM63 °FClear.3 mph94%29.89 "Hg10 mi
9:50 PM64 °FPassing clouds.6 mph88%29.89 "HgN/A
9:20 PM64 °FPartly sunny.3 mph88%29.89 "HgN/A
8:50 PM64 °FPartly sunny.6 mph88%29.89 "HgN/A
8:20 PM66 °FPartly sunny.3 mph83%29.89 "HgN/A
7:50 PM66 °FBroken clouds.7 mph88%29.89 "HgN/A
7:20 PM68 °FBroken clouds.8 mph83%29.89 "HgN/A
6:50 PM68 °FBroken clouds.9 mph83%29.89 "HgN/A
6:20 PM68 °FBroken clouds.9 mph83%29.89 "HgN/A
5:50 PM68 °FBroken clouds.12 mph83%29.89 "HgN/A
5:20 PM68 °FBroken clouds.13 mph83%29.89 "HgN/A
Weather by CustomWeather, © 2014

See weather overviewHow to use our weather pages